Weather in Lemnos

Greece     39°55′16″N   25°11′55″E
temp.,
°C
wind,
m/s
gust,
m/s
humid.,
%
clouds,
%
prec.,
mm/h
press.,
hPa
HPBL,
m
16 april, fri
fri1600:00+12ne55836 0.0 1017342
03:00+12ne778560 0.0 1017469
06:00+11ne10118488 0.0 1017505
09:00+11ne10108191 0.0 1018601
12:00+12ne10107855 0.0 1019615
15:00+13ne9974100 0.0 1018544
18:00+13ne8976100 0.0 1017441
21:00+13ne8977100 0.0 1017381
17 april, sat
sat1700:00+13ne101177100 0.0 1017458
03:00+12ne101183100 0.0 1016395
06:00+12ene101183100 0.0 1015457
09:00+12ene101184100 0.2 1015457
12:00+13ne131284100 0.3 1014435
15:00+13ne121282100 0.3 1013385
18:00+14ne111284100 0.0 1011265
21:00+13ene101187100 0.0 1011253
18 april, sun
sun1800:00+13ne988838 0.1 1011248
03:00+12ene9991100 0.2 1012269
06:00+13e3488100 0.1 1012295
09:00+14ene4487100 0.1 1012314
12:00+16sse3581100 0.0 1013317
15:00+16sw3477100 0.0 1013240
18:00+16sw3480100 0.0 1013205
21:00+14nw1188100 0.0 101218
19 april, mon
mon1900:00+15e1187100 0.1 101217
03:00+14sse349597 0.9 101094
06:00+15s4995100 1.6 1008208
09:00+14sw6895100 6.3 1007357
12:00+15wnw788841 1.3 1007452
15:00+17wsw1014640 1.4 1006770
18:00+17sw6116114 0.0 1005546
21:00+15wsw11166736 0.1 1006595
20 april, tue
tue2000:00+13w587499 0.3 1007358
03:00+13w91272100 0.3 10091042
06:00+13wnw56685 0.0 1010487
09:00+14w45600 0.0 1012724
12:00+15w66580 0.0 1014788
15:00+16wsw77580 0.0 1014667
18:00+15sw57600 0.0 1014389
21:00+13ssw47750 0.0 1015248